Mattoon, IL

7:02 PM CDT on May 20, 2018 (GMT -0500)
Coles County Memorial

Weather History for KMTO - January, 2013

Change the Weather History Date:

Monday, January 28, 2013

  Actual Average Record
Temperature  
Mean Temperature 49 °F 28 °F  
Max Temperature 56 °F 35 °F 63 °F (1970)
Min Temperature 42 °F 20 °F -15 °F (1963)
Degree Days  
Heating Degree Days 16 38  
Month to date heating degree days 1001 1061  
Since 1 July heating degree days 2959 3164  
Cooling Degree Days 0 0  
Month to date cooling degree days 0 0  
Year to date cooling degree days 0 0  
Moisture  
Dew Point 52 °F    
Average Humidity 96    
Maximum Humidity 100    
Minimum Humidity 92    
Precipitation  
Precipitation 0.10 in 0.06 in 1.60 in (1969)
Month to date precipitation 1.71 2.03  
Year to date precipitation 1.71 2.03  
Sea Level Pressure  
Sea Level Pressure 29.96 in    
Wind  
Wind Speed 11 mph (South)    
Max Wind Speed 18 mph    
Max Gust Speed 26 mph    
Visibility 2 miles    
Events Fog , Rain    
T = Trace of Precipitation, MM = Missing Value Source: NWS Daily Summary

Daily Weather History Graph

Daily Weather History Graph

Search for Another Location

Airport or City:

Astronomy

Jan. 28, 2013 Rise Set
Actual Time 7:03 AM CST 5:08 PM CST
Civil Twilight 6:35 AM CST 5:37 PM CST
Nautical Twilight 6:02 AM CST 6:09 PM CST
Astronomical Twilight 5:31 AM CST 6:41 PM CST
Moon 7:02 PM CST (1/28) 7:29 AM CST (1/28)
Length of Visible Light 11h 02m
Length of Day
10h 05m
Full, 98% of the Moon is Illuminated
Jan 28
Full
Feb 3
Last Quarter
Feb 10
New
Feb 17
First Quarter
Feb 25
Full

Hourly Weather History & Observations

Time (CST) Temp. Windchill Dew Point Humidity Pressure Visibility Wind Dir Wind Speed Gust Speed Precip Events Conditions
12:53 AM 43.0 °F 36.8 °F 42.1 °F 97% 30.02 in 6.0 mi South 11.5 mph - 0.00 in   Overcast
1:53 AM 45.0 °F 40.1 °F 43.0 °F 93% 30.02 in 6.0 mi SSW 9.2 mph 17.3 mph 0.00 in   Overcast
2:33 AM 46.4 °F 41.1 °F 44.6 °F 93% 29.99 in 7.0 mi South 11.5 mph - N/A   Overcast
2:53 AM 45.0 °F 39.7 °F 44.1 °F 97% 29.99 in 6.0 mi South 10.4 mph 19.6 mph N/A   Overcast
3:26 AM 44.6 °F 38.8 °F 44.6 °F 100% 29.98 in 3.0 mi South 11.5 mph - 0.03 in Rain Light Rain
3:38 AM 44.6 °F 39.2 °F 44.6 °F 100% 29.98 in 4.0 mi South 10.4 mph - 0.03 in Rain Light Rain
3:53 AM 45.0 °F 40.1 °F 45.0 °F 100% 29.99 in 4.0 mi South 9.2 mph - 0.03 in Rain Light Rain
4:27 AM 44.6 °F 38.8 °F - N/A% 29.97 in 5.0 mi South 11.5 mph - 0.00 in   Haze
4:53 AM 45.0 °F 39.3 °F - N/A% 29.99 in 5.0 mi South 11.5 mph - 0.00 in Rain Light Rain
5:53 AM 45.0 °F 39.7 °F - N/A% 29.98 in 5.0 mi South 10.4 mph - 0.01 in Rain Light Rain
6:53 AM 46.0 °F 40.6 °F - N/A% 29.97 in 5.0 mi South 11.5 mph - 0.00 in   Haze
7:25 AM 46.4 °F 41.1 °F - N/A% 29.96 in 3.0 mi South 11.5 mph - N/A   Overcast
7:42 AM 46.4 °F 41.1 °F - N/A% 29.97 in 2.0 mi South 11.5 mph 19.6 mph 0.03 in Rain Light Rain
7:53 AM 46.9 °F - - N/A% 29.98 in 3.0 mi South 8.1 mph - 0.03 in Rain Light Rain
8:00 AM 46.4 °F 41.5 °F - N/A% 29.97 in 2.0 mi South 10.4 mph 17.3 mph 0.02 in Rain Light Rain
8:04 AM 48.2 °F - - N/A% 29.97 in 2.0 mi South 12.7 mph - 0.02 in Rain Light Rain
8:20 AM 48.2 °F - - N/A% 29.98 in 3.0 mi SSW 6.9 mph - 0.02 in   Overcast
8:53 AM 48.9 °F - - N/A% 29.99 in 3.0 mi South 11.5 mph - 0.02 in   Overcast
9:31 AM 50.0 °F - - N/A% 29.98 in 2.5 mi South 9.2 mph - 0.01 in   Overcast
9:53 AM 48.9 °F - - N/A% 30.00 in 2.0 mi South 9.2 mph - 0.01 in   Overcast
10:53 AM - - - N/A% 29.99 in 2.5 mi South 10.4 mph - N/A   Overcast
11:15 AM - - - N/A% 29.99 in 2.0 mi South 9.2 mph - N/A   Overcast
11:53 AM - - - N/A% 29.97 in 1.2 mi South 9.2 mph - N/A   Overcast
12:00 PM - - - N/A% 29.97 in - North - - N/A   Overcast
12:53 PM 53.1 °F - 53.1 °F 100% 29.96 in 0.2 mi South 10.4 mph - N/A Fog Fog
1:53 PM 53.1 °F - 53.1 °F 100% 29.94 in 0.2 mi South 9.2 mph - N/A Fog Fog
2:53 PM 53.1 °F - 53.1 °F 100% 29.95 in 0.2 mi South 11.5 mph - N/A Fog Fog
3:53 PM 54.0 °F - 54.0 °F 100% 29.94 in 0.2 mi South 11.5 mph 20.7 mph N/A Fog Fog
4:53 PM 54.0 °F - 54.0 °F 100% 29.94 in 0.2 mi South 10.4 mph - N/A Fog Fog
5:19 PM 53.6 °F - 53.6 °F 100% 29.94 in 0.2 mi South 10.4 mph - N/A Fog Fog
5:53 PM 53.1 °F - 53.1 °F 100% 29.95 in 0.2 mi South 9.2 mph - N/A Fog Fog
6:44 PM 53.6 °F - 53.6 °F 100% 29.95 in 0.2 mi South 10.4 mph - N/A Fog Fog
6:53 PM 55.0 °F - 55.0 °F 100% 29.95 in 0.2 mi South 10.4 mph 18.4 mph N/A Fog Fog
7:53 PM 55.0 °F - 55.0 °F 100% 29.95 in 0.2 mi South 11.5 mph - N/A Fog Fog
8:53 PM 55.0 °F - 55.0 °F 100% 29.94 in 0.2 mi South 11.5 mph - N/A Fog Fog
9:22 PM 55.4 °F - 55.4 °F 100% 29.94 in 0.5 mi South 10.4 mph - N/A Fog Fog
9:53 PM 55.9 °F - 55.9 °F 100% 29.93 in 0.8 mi South 12.7 mph 20.7 mph N/A   Overcast
10:02 PM 55.4 °F - 55.4 °F 100% 29.93 in 1.2 mi South 9.2 mph 20.7 mph N/A   Overcast
10:22 PM 55.4 °F - 55.4 °F 100% 29.93 in 2.0 mi South 8.1 mph - N/A   Overcast
10:53 PM 55.9 °F - 55.9 °F 100% 29.92 in 2.5 mi South 12.7 mph 20.7 mph N/A   Overcast
11:13 PM 55.4 °F - 55.4 °F 100% 29.92 in 3.0 mi South 11.5 mph - N/A   Overcast
11:53 PM 55.9 °F - 55.9 °F 100% 29.91 in 3.0 mi South 16.1 mph 21.9 mph N/A   Overcast